Orbital Elements at Epoch 2459000.5 (2020-May-31.0) TDB
Reference: JPL 27 (heliocentric ecliptic J2000)
Element | Value | Uncertainty (1-sigma) | Units |
e | .08644219757332178 | 2.9364e-08 | |
a | 2.333654776032473 | 7.6641e-09 | au |
q | 2.131928528814748 | 6.9167e-08 | au |
i | 3.834318028804195 | 3.9021e-06 | deg |
node | 192.8900189505116 | 4.3284e-05 | deg |
peri | 299.4794402735063 | 4.9325e-05 | deg |
M | 201.0756081121273 | 2.5122e-05 | deg |
tp | 2459575.332612706062 (2021-Dec-26.83261271) | 9.2155e-05 | TDB |
period | 1302.126993320109 3.57 | 6.4146e-06 1.756e-08 | d yr |
n | .276470729695947 | 1.362e-09 | deg/d |
Q | 2.535381023250198 | 8.3266e-09 | au |
|
| | Orbit Determination Parameters
Additional Information
|